Weather History for Joliet, IL

Change the Weather History Date:

Sunday, August 24, 2014

  Actual Average (KLOT) Record (KLOT)
Temperature  
Mean Temperature 76 °F 72 °F  
Max Temperature 86 °F 82 °F 93 °F (2012)
Min Temperature 67 °F 62 °F 55 °F (2009)
Degree Days  
Heating Degree Days 0 0  
Month to date heating degree days 0  
Since 1 June heating degree days 35  
Since 1 July heating degree days 2  
Cooling Degree Days 11 7  
Month to date cooling degree days 186  
Year to date cooling degree days 706  
Since 1 June cooling degree days 648  
Growing Degree Days 26 (Base 50)    
Moisture  
Dew Point 71 °F    
Average Humidity 83    
Maximum Humidity 96    
Minimum Humidity 67    
Precipitation  
Precipitation 0.00 in 0.13 in 1.75 in (1999)
Month to date precipitation 3.18  
Year to date precipitation 26.93  
Sea Level Pressure  
Sea Level Pressure 30.00 in    
Wind  
Wind Speed 3 mph (SE)    
Max Wind Speed 8 mph    
Max Gust Speed -    
Visibility 7 miles    
Events      
T = Trace of Precipitation, MM = Missing Value Source: NWS Daily Summary

Daily Weather History Graph

Daily Weather History Graph

Search for Another Location

Airport:

Trip Planner

Search our weather history database for the weather conditions in past years. The results will help you decide how hot, cold, wet, or windy it might be!

Date:

Astronomy

Aug. 24, 2014 Rise Set
Actual Time 6:10 AM CDT 7:38 PM CDT
Civil Twilight 5:41 AM CDT 8:07 PM CDT
Nautical Twilight 5:06 AM CDT 8:42 PM CDT
Astronomical Twilight 4:29 AM CDT 9:19 PM CDT
Moon 5:21 AM CDT (8/24) 6:56 PM CDT (8/24)
Length of Visible Light 14h 25m
Length of Day
13h 27m
Waning Crescent, 1% of the Moon is Illuminated
Aug 24
Waning Crescent
Aug 25
New
Sep 2
First Quarter
Sep 8
Full
Sep 15
Last Quarter

Hourly Weather History & Observations

Time (CDT) Temp. Heat Index Dew Point Humidity Pressure Visibility Wind Dir Wind Speed Gust Speed Precip Events Conditions
12:15 AM 67.1 °F - 65.7 °F 95% 29.99 in 1.2 mi Calm Calm - N/A   Mist
12:35 AM 68.0 °F - 66.7 °F 96% 29.99 in 7.0 mi Calm Calm - N/A   Clear
12:55 AM 67.3 °F - 66.0 °F 96% 29.99 in 5.0 mi Calm Calm - N/A   Clear
1:15 AM 67.8 °F - 66.4 °F 95% 29.99 in 3.0 mi Calm Calm - N/A   Clear
1:35 AM 67.3 °F - 66.2 °F 96% 29.99 in 0.8 mi Calm Calm - N/A   Mist
1:55 AM 67.6 °F - 66.4 °F 96% 29.99 in 5.0 mi Calm Calm - N/A   Clear
2:15 AM 67.5 °F - 66.2 °F 96% 29.99 in 5.0 mi Calm Calm - N/A   Clear
2:35 AM 68.2 °F - 66.7 °F 95% 29.99 in 5.0 mi Calm Calm - N/A   Clear
2:55 AM 68.0 °F - 66.4 °F 95% 29.99 in 4.0 mi Calm Calm - N/A   Scattered Clouds
3:15 AM 68.9 °F - 67.1 °F 94% 29.99 in 4.0 mi Calm Calm - N/A   Mostly Cloudy
3:35 AM 69.3 °F - 66.9 °F 92% 29.99 in 4.0 mi East 3.5 mph - N/A   Mostly Cloudy
3:55 AM 69.4 °F - 67.1 °F 92% 29.99 in 4.0 mi East 4.6 mph - N/A   Mostly Cloudy
4:15 AM 69.4 °F - 67.1 °F 92% 29.98 in 4.0 mi East 3.5 mph - N/A   Mostly Cloudy
4:35 AM 69.1 °F - 67.1 °F 93% 29.98 in 4.0 mi Calm Calm - N/A   Mostly Cloudy
4:55 AM 69.3 °F - 67.1 °F 93% 29.99 in 4.0 mi Calm Calm - N/A   Mostly Cloudy
5:15 AM 69.1 °F - 66.7 °F 92% 29.99 in 4.0 mi Calm Calm - N/A   Mostly Cloudy
5:35 AM 69.3 °F - 67.1 °F 93% 29.99 in 4.0 mi Calm Calm - N/A   Scattered Clouds
5:55 AM 69.8 °F - 67.3 °F 92% 30.00 in 5.0 mi ESE 4.6 mph - N/A   Scattered Clouds
6:15 AM 69.8 °F - 67.5 °F 92% 30.00 in 4.0 mi ESE 5.8 mph - N/A   Mostly Cloudy
6:35 AM 70.0 °F - 67.6 °F 92% 30.01 in 4.0 mi ESE 4.6 mph - N/A   Scattered Clouds
6:55 AM 70.0 °F - 67.8 °F 93% 30.01 in 4.0 mi ESE 3.5 mph - N/A   Scattered Clouds
7:15 AM 70.9 °F - 68.5 °F 92% 30.02 in 4.0 mi ESE 5.8 mph - N/A   Scattered Clouds
7:35 AM 71.8 °F - 68.9 °F 91% 30.02 in 5.0 mi ESE 6.9 mph - N/A   Scattered Clouds
7:55 AM 72.0 °F - 68.7 °F 89% 30.02 in 5.0 mi ESE 5.8 mph - N/A   Scattered Clouds
8:15 AM 72.5 °F - 69.1 °F 89% 30.01 in 5.0 mi East 5.8 mph - N/A   Mostly Cloudy
8:35 AM 73.4 °F - 69.8 °F 88% 30.02 in 5.0 mi ESE 5.8 mph - N/A   Mostly Cloudy
8:55 AM 73.9 °F - 70.0 °F 87% 30.02 in 5.0 mi SE 6.9 mph - N/A   Overcast
9:15 AM 74.3 °F - 70.2 °F 87% 30.02 in 7.0 mi SE 5.8 mph - N/A   Mostly Cloudy
9:35 AM 75.6 °F - 70.7 °F 85% 30.01 in 7.0 mi SSE 6.9 mph - N/A   Mostly Cloudy
9:55 AM 76.6 °F - 71.1 °F 83% 30.02 in 7.0 mi SE 6.9 mph - N/A   Mostly Cloudy
10:15 AM 76.3 °F - 70.7 °F 83% 30.02 in 7.0 mi ESE 8.1 mph - N/A   Mostly Cloudy
10:35 AM 76.6 °F - 70.9 °F 82% 30.02 in 7.0 mi ESE 8.1 mph - N/A   Scattered Clouds
10:55 AM 78.3 °F - 71.6 °F 80% 30.02 in 7.0 mi ESE 6.9 mph - N/A   Scattered Clouds
11:15 AM 78.8 °F - 71.2 °F 78% 30.02 in 7.0 mi SE 5.8 mph - N/A   Scattered Clouds
11:35 AM 78.8 °F - 71.1 °F 77% 30.02 in 7.0 mi ESE 6.9 mph - N/A   Clear
11:55 AM 79.7 °F - 71.4 °F 76% 30.02 in 7.0 mi ESE 5.8 mph - N/A   Scattered Clouds
12:15 PM 80.8 °F 84.7 °F 71.6 °F 73% 30.02 in 7.0 mi SE 8.1 mph - N/A   Clear
12:35 PM 81.9 °F 86.8 °F 72.5 °F 73% 30.01 in 7.0 mi ESE 8.1 mph - N/A   Clear
12:55 PM 82.2 °F 87.1 °F 72.1 °F 71% 30.01 in 7.0 mi ESE 8.1 mph - N/A   Clear
1:15 PM 82.8 °F 88.2 °F 72.5 °F 71% 30.01 in 10.0 mi SSE 8.1 mph - N/A   Clear
1:35 PM 83.1 °F 88.9 °F 72.7 °F 71% 30.01 in 10.0 mi SE 6.9 mph - N/A   Clear
1:55 PM 83.5 °F 89.7 °F 73.0 °F 71% 30.00 in 10.0 mi SSE 8.1 mph - N/A   Clear
2:15 PM 84.0 °F 90.2 °F 73.0 °F 69% 30.00 in 10.0 mi South 5.8 mph - N/A   Scattered Clouds
2:35 PM 84.0 °F 91.2 °F 73.9 °F 72% 29.99 in 10.0 mi ESE 5.8 mph - N/A   Scattered Clouds
2:55 PM 83.8 °F 90.4 °F 73.4 °F 71% 29.99 in 10.0 mi SSE 5.8 mph - N/A   Scattered Clouds
3:15 PM 84.7 °F 91.4 °F 73.2 °F 68% 29.98 in 10.0 mi SE 6.9 mph - N/A   Scattered Clouds
3:35 PM 84.2 °F 90.6 °F 72.9 °F 69% 29.98 in 10.0 mi SE 6.9 mph - N/A   Scattered Clouds
3:55 PM 85.5 °F 92.6 °F 73.2 °F 67% 29.98 in 10.0 mi South 6.9 mph - N/A   Scattered Clouds
4:15 PM 84.2 °F 90.6 °F 73.0 °F 69% 29.97 in 10.0 mi SE 4.6 mph - N/A   Scattered Clouds
4:35 PM 85.6 °F 93.4 °F 74.1 °F 68% 29.97 in 10.0 mi South 6.9 mph - N/A   Scattered Clouds
4:55 PM 85.5 °F 93.0 °F 73.9 °F 68% 29.97 in 10.0 mi South 6.9 mph - N/A   Scattered Clouds
5:15 PM 85.1 °F 92.6 °F 73.9 °F 69% 29.97 in 10.0 mi South 5.8 mph - N/A   Scattered Clouds
5:35 PM 84.9 °F 92.1 °F 73.9 °F 69% 29.97 in 10.0 mi SSE 5.8 mph - N/A   Scattered Clouds
5:55 PM 85.1 °F 92.9 °F 74.1 °F 70% 29.97 in 10.0 mi SSE 5.8 mph - N/A   Scattered Clouds
6:15 PM 84.6 °F 91.7 °F 73.8 °F 70% 29.97 in 10.0 mi South 4.6 mph - N/A   Scattered Clouds
6:35 PM 83.7 °F 90.4 °F 73.8 °F 72% 29.97 in 10.0 mi South 5.8 mph - N/A   Clear
6:55 PM 83.3 °F 89.9 °F 73.8 °F 73% 29.97 in 10.0 mi SSE 3.5 mph - N/A   Clear
7:15 PM 82.4 °F 88.4 °F 73.8 °F 75% 29.97 in 10.0 mi SSE 4.6 mph - N/A   Clear
7:35 PM 81.3 °F 86.8 °F 73.9 °F 78% 29.97 in 10.0 mi Calm Calm - N/A   Clear
7:55 PM 80.6 °F 85.7 °F 74.1 °F 81% 29.97 in 10.0 mi Calm Calm - N/A   Clear
8:15 PM 79.5 °F - 73.9 °F 83% 29.98 in 7.0 mi SSE 3.5 mph - N/A   Clear
8:35 PM 79.2 °F - 74.1 °F 84% 29.99 in 7.0 mi Calm Calm - N/A   Clear
8:55 PM 77.2 °F - 73.6 °F 89% 29.99 in 7.0 mi Calm Calm - N/A   Clear
9:15 PM 77.0 °F - 73.6 °F 89% 29.99 in 7.0 mi SE 3.5 mph - N/A   Clear
9:35 PM 78.3 °F - 73.9 °F 87% 29.99 in 7.0 mi SE 3.5 mph - N/A   Clear
9:55 PM 78.4 °F - 73.8 °F 85% 30.00 in 10.0 mi SE 4.6 mph - N/A   Clear
10:15 PM 78.6 °F - 73.6 °F 84% 30.00 in 10.0 mi SE 5.8 mph - N/A   Clear
10:35 PM 78.3 °F - 73.6 °F 85% 30.00 in 10.0 mi SE 4.6 mph - N/A   Clear
10:55 PM 77.7 °F - 73.6 °F 87% 30.01 in 7.0 mi SE 4.6 mph - N/A   Clear
11:15 PM 77.2 °F - 73.4 °F 88% 30.01 in 7.0 mi SSE 3.5 mph - N/A   Clear
11:35 PM 76.8 °F - 73.0 °F 88% 30.01 in 7.0 mi Calm Calm - N/A   Clear
11:55 PM 76.8 °F - 73.0 °F 88% 30.01 in 7.0 mi Calm Calm - N/A   Clear